Regional Weather Roundup
Issued by NWS Sterling, VA

Home | Current Version | Previous Version | Graphics & Text | Print | Product List | Glossary On
Versions: 1 2 3 4 5 6 7 8 9 10 11 12 13 14 15 16 17 18 19 20 21 22 23 24 25 26 27 28
000
ASUS41 KLWX 201410
RWRLWX

REGIONAL WEATHER ROUNDUP
NATIONAL WEATHER SERVICE BALTIMORE MD/WASHINGTON DC
1000 AM EDT SUN APR 20 2014

Note: "FAIR" indicates few or no clouds below 12,000 feet
with no significant weather and/or obstructions to visibility.
 TC=TEMPERATURE CELSIUS

 * =Non NWS site. Station does not report precipitation (e.g. rain,
    snow, etc.), thunder, or fog.

DCZ001-MDZ009-015-VAZ040>042-051-053>054-201500-
WASHINGTON METRO

CITY           SKY/WX    TMP DP  RH WIND       PRES   REMARKS
WASHINGTON NAT CLOUDY    56  37  49 E14       30.43R
DULLES         PTSUNNY   52  32  46 E3        30.42R
ANDREWS AFB    CLOUDY    53  37  55 E16       30.42R
FT BELVOIR     CLOUDY    55  35  47 VRB7      30.43R
QUANTICO       CLOUDY    56  37  49 E13       30.43R
COLLEGE PARK*  CLOUDY    54  36  50 E7        30.42R
LEESBURG*      MOSUNNY   54  34  47 E8        30.44R
MANASSAS*      SUNNY     54  34  47 CALM      30.42R
GAITHERSBURG*  SUNNY     54  34  47 E14G20    30.45R

$$

MDZ006>007-011-014-201500-
BALTIMORE METRO

CITY           SKY/WX    TMP DP  RH WIND       PRES   REMARKS
BWI AIRPORT    PTSUNNY   52  35  52 E17G23    30.43R
MD SCIENCE CTR   N/A     52  35  52 MISG      30.45R
MARTIN STATE   PTSUNNY   52  36  54 E9G18     30.46R
ANNAPOLIS      CLOUDY    52  37  56 E15       30.44R
FORT MEADE*    PTSUNNY   52  36  54 E10G18    30.45R

$$

MDZ012-015-019>023-201500-
MARYLAND EASTERN SHORE

CITY           SKY/WX    TMP DP  RH WIND       PRES   REMARKS
OCEAN CITY     MOSUNNY   53  41  63 NE15G26   30.40R
SALISBURY      MOSUNNY   56  38  50 NE23G32   30.39R
EASTON*        PTSUNNY   55  36  47 E12G29    30.45R

$$

MDZ017>025-201500-
SOUTHERN MARYLAND

CITY           SKY/WX    TMP DP  RH WIND       PRES   REMARKS
PATUXENT RIVER PTSUNNY   56  39  53 NE13G21   30.39R
ST INIGOES     MOSUNNY   55  40  56 NE16G24   30.39R
LEONARDTOWN*   MOSUNNY   54  36  50 NE8       30.41R

$$

MDZ003>005-201500-
NORTH CENTRAL MARYLAND

CITY           SKY/WX    TMP DP  RH WIND       PRES   REMARKS
FREDERICK*     SUNNY     55  36  47 E9        30.45R
HAGERSTOWN APT MOSUNNY   55  28  35 NE9       30.41R
WESTMINSTER*   SUNNY     52  30  43 SE9G16    30.41R

$$

MDZ501>502-201500-
WESTERN MARYLAND

CITY           SKY/WX    TMP DP  RH WIND       PRES   REMARKS
OAKLAND*       MOSUNNY   46  12  25 SE17G23   30.33S
CUMBERLAND*    MOSUNNY   54  30  40 N3        30.43F

$$

VAZ025>031-201500-
SHENANDOAH VALLEY

CITY           SKY/WX    TMP DP  RH WIND       PRES   REMARKS
WINCHESTER*    SUNNY     54  30  40 E5        30.41R
STAUNTON*      PTSUNNY   50  31  49 NE7       30.40R

$$

WVZ021-048>050-054>055-201500-
EASTERN WEST VIRGINIA PANHANDLE

CITY           SKY/WX    TMP DP  RH WIND       PRES   REMARKS
MARTINSBURG    SUNNY     55  27  34 CALM      30.41R
PETERSBURG*    SUNNY     54  38  53 CALM      30.40S

$$

VAZ036>039-050-201500-
CENTRAL FOOTHILLS

CITY           SKY/WX    TMP DP  RH WIND       PRES   REMARKS
CHARLOTTESVILL PTSUNNY   56  32  40 NE10      30.39R
CULPEPER*      CLOUDY    55  28  35 NE6       30.42R

$$

VAZ055>057-201500-
NORTH AND CENTRAL PIEDMONT

CITY           SKY/WX    TMP DP  RH WIND       PRES   REMARKS
FREDERICKSBRG* CLOUDY    57  37  47 NE13      30.39R
STAFFORD*      CLOUDY    56  39  54 E9        30.45R

$$

NCZ024-NYZ072-PAZ021-071-VAZ022-071-201500-
OTHER REGIONAL OBSERVATIONS

CITY           SKY/WX    TMP DP  RH WIND       PRES   REMARKS
NEW YORK CITY  MOSUNNY   50  26  39 E12G17    30.52R
PHILADELPHIA   PTSUNNY   50  27  40 E17       30.48R
PITTSBURGH     PTSUNNY   55  26  32 SE8       30.33F
ROANOKE        MOSUNNY   57  34  41 NE7       30.36R
RICHMOND       PTSUNNY   59  34  39 NE13G24   30.34R
RALEIGH        PTSUNNY   56  35  45 NE16G26   30.25R

$$

ANZ530>537-201500-
MARINE OBSERVATIONS

STATION/POSITION TIME  TEMP    WIND        PRES
                       AIR SEA DIR/SP/G
                 (UTC) (F)     (DEG/KT/KT) (MB)
THOMAS PT LIGHT  1400   51 53   90/ 17/ 19 1031.0R
BALT KEY BRIDGE  1400   50      70/ 16/ 18 1030.6R
COVE POINT       1400   52      90/ 12/ 15 1029.1R
LEWISETTA        1400   53 54   70/ 11/ 16 1028.7R
SOLOMONS ISLAND  1400      52                N/A
PINEY POINT      1400          100/ 13/ 19   N/A

$$




USA.gov is the U.S. government's official web portal to all federal, state and local government web resources and services.